User: anonymous   Login
Location: Unspecified
(0.0000°N, 0.0000°E)
Time: 14:22:49
(UTC+00:00)
Language:

LAPAN A2 - Orbit

View from above orbital plane
View from above orbital plane
View from above satellite
View from above satellite

Ground track
Ground track

The orbit data is extracted from the following two-line orbital elements,

1 40931U 15052B   21331.11104999  .00000658  00000-0  25428-5 0  9999
2 40931   5.9963 172.2912 0012048 186.8398 173.1761 14.76705378333387
Epoch (UTC): 27 November 2021 02:39:54
Eccentricity: 0.0012048
inclination: 5.9963°
perigee height: 631 km
apogee height: 648 km
right ascension of ascending node: 172.2912°
argument of perigee: 186.8398°
revolutions per day: 14.76705378
mean anomaly at epoch: 173.1761°
orbit number at epoch: 33338

The dashed part of the orbit path shows where the satellite is in the earth's shadow,  

DLR